TimeCST,TemperatureF,Dew PointF,Humidity,Sea Level PressureIn,VisibilityMPH,Wind Direction,Wind SpeedMPH,Gust SpeedMPH,PrecipitationIn,Events,Conditions,WindDirDegrees,DateUTC
12:15 AM,11.3,8.2,87,29.42,1.8,South,11.5,-,N/A,Snow,Light Snow,180,2014-01-16 06:15:00
12:35 AM,12.2,9.1,88,29.41,1.0,South,11.5,-,N/A,Snow,Light Snow,180,2014-01-16 06:35:00
12:55 AM,13.1,10.0,88,29.39,2.5,South,11.5,-,N/A,Snow,Light Snow,190,2014-01-16 06:55:00
1:15 AM,14.0,10.9,88,29.39,3.0,South,11.5,-,N/A,Snow,Light Snow,190,2014-01-16 07:15:00
1:35 AM,14.7,11.5,87,29.38,7.0,South,11.5,19.6,N/A,Snow,Light Snow,190,2014-01-16 07:35:00
1:55 AM,15.1,12.2,88,29.38,10.0,South,10.4,-,N/A,,Overcast,190,2014-01-16 07:55:00
2:15 AM,15.8,12.7,88,29.37,10.0,South,10.4,-,N/A,,Overcast,190,2014-01-16 08:15:00
2:35 AM,16.5,13.3,87,29.36,10.0,South,11.5,-,N/A,,Overcast,190,2014-01-16 08:35:00
2:55 AM,17.2,13.8,86,29.35,10.0,South,11.5,-,N/A,,Overcast,190,2014-01-16 08:55:00
3:15 AM,17.6,13.8,85,29.34,10.0,South,10.4,-,N/A,,Overcast,190,2014-01-16 09:15:00
3:35 AM,17.4,13.6,85,29.33,10.0,South,9.2,-,N/A,,Overcast,190,2014-01-16 09:35:00
3:55 AM,17.4,13.6,85,29.34,10.0,SSW,8.1,-,N/A,,Overcast,200,2014-01-16 09:55:00
4:15 AM,17.6,13.8,85,29.33,10.0,SSW,11.5,-,N/A,,Overcast,200,2014-01-16 10:15:00
4:35 AM,18.0,14.0,84,29.32,10.0,SSW,11.5,-,N/A,,Overcast,200,2014-01-16 10:35:00
4:55 AM,18.1,14.4,85,29.32,10.0,SSW,10.4,-,N/A,,Overcast,200,2014-01-16 10:55:00
5:15 AM,18.3,14.7,86,29.32,10.0,South,8.1,-,N/A,,Overcast,190,2014-01-16 11:15:00
5:35 AM,18.5,15.3,87,29.32,10.0,South,6.9,-,N/A,,Overcast,190,2014-01-16 11:35:00
5:55 AM,19.0,15.6,87,29.32,10.0,South,9.2,-,N/A,,Overcast,180,2014-01-16 11:55:00
6:15 AM,19.4,15.8,86,29.31,10.0,South,9.2,-,N/A,,Overcast,180,2014-01-16 12:15:00
6:35 AM,19.8,16.3,87,29.31,10.0,South,6.9,-,N/A,,Overcast,180,2014-01-16 12:35:00
6:55 AM,20.1,16.7,87,29.31,10.0,SSW,10.4,-,N/A,,Overcast,200,2014-01-16 12:55:00
7:15 AM,20.3,17.2,88,29.30,10.0,South,8.1,-,N/A,,Overcast,190,2014-01-16 13:15:00
7:35 AM,20.7,17.6,88,29.30,10.0,South,8.1,-,N/A,,Overcast,190,2014-01-16 13:35:00
7:55 AM,21.0,18.1,89,29.31,10.0,SSW,8.1,-,N/A,,Overcast,200,2014-01-16 13:55:00
8:15 AM,21.2,18.5,89,29.31,10.0,SSW,8.1,-,N/A,,Overcast,200,2014-01-16 14:15:00
8:35 AM,21.7,19.0,89,29.32,10.0,SSW,6.9,-,N/A,,Overcast,200,2014-01-16 14:35:00
8:55 AM,22.1,19.4,89,29.32,10.0,SSW,8.1,-,N/A,,Overcast,200,2014-01-16 14:55:00
9:15 AM,22.6,20.3,91,29.32,10.0,SSW,6.9,-,N/A,,Overcast,200,2014-01-16 15:15:00
9:35 AM,23.0,20.8,91,29.32,10.0,SSW,6.9,-,N/A,,Overcast,200,2014-01-16 15:35:00
9:55 AM,23.7,21.2,90,29.33,10.0,SSW,6.9,-,N/A,,Overcast,200,2014-01-16 15:55:00
10:15 AM,23.9,21.7,91,29.33,10.0,SSW,6.9,-,N/A,,Overcast,200,2014-01-16 16:15:00
10:35 AM,24.6,22.1,90,29.33,7.0,South,4.6,-,N/A,Snow,Light Snow,190,2014-01-16 16:35:00
10:55 AM,25.2,23.0,91,29.33,4.0,SSW,4.6,-,N/A,Snow,Light Snow,200,2014-01-16 16:55:00
11:15 AM,25.3,23.0,91,29.33,5.0,SSW,4.6,-,N/A,,Overcast,210,2014-01-16 17:15:00
11:35 AM,25.7,23.4,91,29.32,4.0,SW,5.8,-,N/A,Snow,Light Snow,220,2014-01-16 17:35:00
11:55 AM,25.7,23.9,93,29.32,4.0,WSW,4.6,-,N/A,Snow,Light Snow,240,2014-01-16 17:55:00
12:15 PM,27.0,24.6,91,29.32,5.0,West,6.9,-,N/A,,Overcast,280,2014-01-16 18:15:00
12:35 PM,27.5,25.0,90,29.33,2.5,WNW,10.4,-,N/A,,Overcast,290,2014-01-16 18:35:00
12:55 PM,26.6,23.5,88,29.33,4.0,WNW,11.5,20.7,N/A,,Overcast,300,2014-01-16 18:55:00
1:15 PM,25.2,19.4,79,29.34,3.0,WNW,12.7,20.7,N/A,,Overcast,290,2014-01-16 19:15:00
1:35 PM,24.3,18.5,79,29.35,7.0,WNW,11.5,20.7,N/A,Snow,Light Snow,290,2014-01-16 19:35:00
1:55 PM,23.4,18.5,82,29.36,3.0,WNW,11.5,-,N/A,Snow,Light Snow,300,2014-01-16 19:55:00
2:35 PM,22.5,16.9,79,29.38,4.0,WNW,16.1,20.7,N/A,Snow,Light Snow,300,2014-01-16 20:35:00
2:55 PM,21.6,15.8,78,29.40,5.0,NW,17.3,-,N/A,Snow,Light Snow,320,2014-01-16 20:55:00
3:15 PM,18.3,12.9,79,29.42,1.8,NW,18.4,24.2,N/A,Snow,Light Snow,310,2014-01-16 21:15:00
3:35 PM,17.2,10.6,75,29.44,5.0,NW,12.7,-,N/A,,Haze,310,2014-01-16 21:35:00
3:55 PM,16.7,10.4,76,29.46,5.0,WNW,12.7,-,N/A,,Haze,300,2014-01-16 21:55:00
4:15 PM,15.8,9.7,77,29.47,5.0,WNW,13.8,-,N/A,Snow,Light Snow,300,2014-01-16 22:15:00
4:35 PM,14.9,9.1,78,29.49,4.0,WNW,13.8,-,N/A,Snow,Light Snow,300,2014-01-16 22:35:00
4:55 PM,14.0,7.7,76,29.50,4.0,NW,18.4,23.0,N/A,Snow,Light Snow,320,2014-01-16 22:55:00
5:15 PM,13.3,7.0,76,29.52,7.0,NW,12.7,-,N/A,Snow,Light Snow,310,2014-01-16 23:15:00
5:35 PM,11.8,6.4,79,29.54,2.5,WNW,12.7,-,N/A,Snow,Light Snow,300,2014-01-16 23:35:00
5:55 PM,10.6,5.5,80,29.56,1.5,NW,12.7,-,N/A,Snow,Light Snow,310,2014-01-16 23:55:00
6:15 PM,10.0,4.5,78,29.57,3.0,NW,11.5,21.9,N/A,Snow,Light Snow,320,2014-01-17 00:15:00
6:35 PM,8.6,3.2,79,29.58,1.0,NW,15.0,23.0,N/A,Snow,Light Snow,320,2014-01-17 00:35:00
6:55 PM,8.4,3.7,81,29.59,2.0,NW,15.0,18.4,N/A,Snow,Light Snow,320,2014-01-17 00:55:00
7:15 PM,8.2,3.7,82,29.59,1.2,NW,9.2,-,N/A,Snow,Light Snow,320,2014-01-17 01:15:00
7:35 PM,7.9,3.7,83,29.59,1.5,WNW,9.2,-,N/A,Snow,Light Snow,300,2014-01-17 01:35:00
7:55 PM,7.5,2.3,79,29.60,4.0,WNW,11.5,-,N/A,Snow,Light Snow,300,2014-01-17 01:55:00
8:15 PM,7.2,2.1,80,29.61,2.5,WNW,10.4,-,N/A,Snow,Light Snow,300,2014-01-17 02:15:00
8:35 PM,6.8,1.8,80,29.61,4.0,NW,11.5,-,N/A,Snow,Light Snow,310,2014-01-17 02:35:00
8:55 PM,6.8,1.8,80,29.62,3.0,WNW,9.2,16.1,N/A,Snow,Light Snow,300,2014-01-17 02:55:00
9:15 PM,6.6,1.9,81,29.62,3.0,WNW,10.4,-,N/A,Snow,Light Snow,300,2014-01-17 03:15:00
9:35 PM,6.4,1.9,82,29.63,2.5,WNW,9.2,-,N/A,Snow,Light Snow,300,2014-01-17 03:35:00
9:55 PM,6.4,2.3,83,29.63,1.5,WNW,10.4,-,N/A,Snow,Light Snow,300,2014-01-17 03:55:00
10:15 PM,6.4,2.3,83,29.63,1.2,WNW,9.2,-,N/A,Snow,Snow,290,2014-01-17 04:15:00
10:35 PM,6.3,2.3,84,29.63,1.5,WNW,9.2,-,N/A,Snow,Light Snow,290,2014-01-17 04:35:00
10:55 PM,6.3,2.3,84,29.62,1.8,WNW,8.1,-,N/A,Snow,Light Snow,290,2014-01-17 04:55:00
11:15 PM,6.6,2.7,84,29.63,1.2,WNW,10.4,16.1,N/A,Snow,Light Snow,290,2014-01-17 05:15:00
11:35 PM,6.6,2.8,84,29.63,1.5,WNW,8.1,-,N/A,Snow,Light Snow,300,2014-01-17 05:35:00
11:55 PM,6.8,3.0,84,29.62,1.8,WNW,9.2,-,N/A,Snow,Light Snow,300,2014-01-17 05:55:00